Hollywood, FL

8:30 AM EDT on October 20, 2019 (GMT -0400)
North Perry

Weather History for KHWO - August, 2019

Change the Weather History Date:

Tuesday, August 20, 2019

  Actual Average (KFLL) Record (KFLL)
Temperature  
Mean Temperature 84 °F 84 °F  
Max Temperature 90 °F 90 °F 96 °F (1964)
Min Temperature 77 °F 79 °F 66 °F (1981)
Degree Days  
Heating Degree Days 0 0  
Month to date heating degree days 0  
Since 1 June heating degree days 0  
Since 1 July heating degree days 0  
Cooling Degree Days 18 19  
Month to date cooling degree days 399  
Year to date cooling degree days 2958  
Since 1 June cooling degree days 1540  
Growing Degree Days 34 (Base 50)    
Moisture  
Dew Point 73 °F    
Average Humidity 71    
Maximum Humidity 87    
Minimum Humidity 59    
Precipitation  
Precipitation 0.15 in 0.23 in 2.84 in (2003)
Month to date precipitation 4.57  
Year to date precipitation 38.20  
Snow  
Snow 0.00 in - - ()
Month to date snowfall  
Since 1 June snowfall  
Since 1 July snowfall  
Snow Depth -    
Sea Level Pressure  
Sea Level Pressure 30.08 in    
Wind  
Wind Speed 8 mph (ESE)    
Max Wind Speed 20 mph    
Max Gust Speed 23 mph    
Visibility 10 miles    
Events Rain    
T = Trace of Precipitation, MM = Missing Value Source: NWS Daily Summary

Daily Weather History Graph

Daily Weather History Graph

Search for Another Location

Airport or City:

Astronomy

Aug. 20, 2019 Rise Set
Actual Time 6:55 AM EDT 7:52 PM EDT
Civil Twilight 6:31 AM EDT 8:16 PM EDT
Nautical Twilight 6:03 AM EDT 8:44 PM EDT
Astronomical Twilight 5:34 AM EDT 9:13 PM EDT
Moon 11:07 PM EDT 11:07 AM EDT
Length of Visible Light 13h 44m
Length of Day
12h 56m
Waning Gibbous, 78% of the Moon is Illuminated
Aug 20
Waning Gibbous
Aug 23
Last Quarter
Aug 30
New
Sep 5
First Quarter
Sep 14
Full

Hourly Weather History & Observations

Time (EDT) Temp. Heat Index Dew Point Humidity Pressure Visibility Wind Dir Wind Speed Gust Speed Precip Events Conditions
12:53 AM 80.1 °F 84.5 °F 73.9 °F 81% 30.09 in 10.0 mi ESE 3.5 mph - N/A   Clear
1:53 AM 82.0 °F 87.4 °F 73.0 °F 74% 30.07 in 10.0 mi Calm Calm - N/A   Clear
2:53 AM 80.1 °F 84.5 °F 73.9 °F 81% 30.04 in 10.0 mi North 3.5 mph - N/A   Clear
3:53 AM 81.0 °F 86.2 °F 73.9 °F 79% 30.04 in 10.0 mi ESE 4.6 mph - N/A   Partly Cloudy
4:53 AM 80.1 °F 84.2 °F 73.0 °F 79% 30.04 in 10.0 mi ENE 4.6 mph - N/A   Clear
5:53 AM 78.1 °F - 73.9 °F 87% 30.06 in 10.0 mi East 6.9 mph - 0.13 in   Overcast
6:53 AM 78.1 °F - 72.0 °F 81% 30.09 in 10.0 mi East 11.5 mph - 0.00 in Rain Light Rain
7:53 AM 77.0 °F - 72.0 °F 84% 30.10 in 8.0 mi East 16.1 mph - 0.01 in Rain Light Rain
8:53 AM 79.0 °F - 73.9 °F 84% 30.11 in 10.0 mi East 6.9 mph - 0.01 in   Clear
9:53 AM 84.0 °F 92.6 °F 75.9 °F 76% 30.12 in 10.0 mi ESE 8.1 mph - N/A   Partly Cloudy
10:53 AM 84.9 °F 91.4 °F 73.0 °F 67% 30.12 in 10.0 mi East 10.4 mph - N/A   Scattered Clouds
11:53 AM 87.1 °F 93.6 °F 72.0 °F 61% 30.12 in 10.0 mi ESE 13.8 mph - N/A   Partly Cloudy
12:53 PM 89.1 °F 98.0 °F 73.9 °F 61% 30.11 in 10.0 mi ESE 12.7 mph 23.0 mph N/A   Scattered Clouds
1:53 PM 89.1 °F 98.0 °F 73.9 °F 61% 30.10 in 10.0 mi ESE 11.5 mph 21.9 mph N/A   Partly Cloudy
2:53 PM 88.0 °F 96.5 °F 73.9 °F 63% 30.08 in 10.0 mi East 19.6 mph - N/A   Mostly Cloudy
3:53 PM 90.0 °F 99.0 °F 73.9 °F 59% 30.06 in 10.0 mi ESE 17.3 mph 23.0 mph N/A   Scattered Clouds
4:53 PM 87.1 °F 93.6 °F 72.0 °F 61% 30.05 in 10.0 mi ESE 16.1 mph - N/A   Clear
5:53 PM 87.1 °F 94.5 °F 73.0 °F 63% 30.06 in 10.0 mi ESE 18.4 mph - N/A   Partly Cloudy
6:53 PM 86.0 °F 93.0 °F 73.0 °F 65% 30.06 in 10.0 mi East 13.8 mph - N/A   Scattered Clouds
7:53 PM 84.0 °F 90.2 °F 73.0 °F 69% 30.08 in 10.0 mi ESE 8.1 mph - N/A   Scattered Clouds
8:53 PM 82.9 °F 87.5 °F 71.1 °F 67% 30.10 in 10.0 mi ESE 8.1 mph - N/A   Clear
9:53 PM 82.9 °F 87.5 °F 71.1 °F 67% 30.12 in 10.0 mi ESE 8.1 mph - N/A   Clear
10:53 PM 82.9 °F 87.5 °F 71.1 °F 67% 30.11 in 10.0 mi ESE 5.8 mph - N/A   Clear